| time (UTC) | temp C | wind direction | speed KPH | gust KPH | rain 1hr cm | rain 24hr cm | rain mn cm | humidity % | barometer mb |
| 20260831032450 | 30 | 131 | 0.0 | 0.0 | 0.00 | 0.00 | 0.00 | 45 | 1012.6 |
| 20260831031945 | 31 | 131 | 0.0 | 0.0 | 0.00 | 0.00 | 0.00 | 45 | 1012.6 |
| 20260831031442 | 31 | 131 | 0.0 | 0.0 | 0.00 | 0.00 | 0.00 | 45 | 1012.6 |
| 20260831030934 | 31 | 131 | 0.0 | 0.0 | 0.00 | 0.00 | 0.00 | 44 | 1012.6 |
| 20260831030429 | 31 | 131 | 0.0 | 0.0 | 0.00 | 0.00 | 0.00 | 45 | 1012.6 |
| 20260831025929 | 31 | 131 | 0.0 | 0.0 | 0.00 | 0.00 | 0.00 | 46 | 1012.5 |
| 20260831025427 | 31 | 131 | 0.0 | 0.0 | 0.00 | 0.00 | 0.00 | 46 | 1012.5 |
| 20260831024923 | 31 | 131 | 0.0 | 0.0 | 0.00 | 0.00 | 0.00 | 46 | 1012.4 |
| 20260831024421 | 31 | 131 | 0.0 | 0.0 | 0.00 | 0.00 | 0.00 | 46 | 1012.3 |
| 20260831023855 | 31 | 131 | 0.0 | 0.0 | 0.00 | 0.00 | 0.00 | 46 | 1012.2 |
| 20260831023354 | 31 | 131 | 0.0 | 3.2 | 0.00 | 0.00 | 0.00 | 46 | 1012.2 |
| 20260831022829 | 31 | 131 | 0.0 | 1.6 | 0.00 | 0.00 | 0.00 | 45 | 1012.2 |
| 20260831022302 | 32 | 131 | 0.0 | 1.6 | 0.00 | 0.00 | 0.00 | 45 | 1012.1 |
| 20260831021749 | 32 | 131 | 0.0 | 1.6 | 0.00 | 0.00 | 0.00 | 45 | 1012.0 |
| 20260831021252 | 32 | 131 | 0.0 | 1.6 | 0.00 | 0.00 | 0.00 | 44 | 1011.9 |
| 20260831020747 | 32 | 131 | 0.0 | 1.6 | 0.00 | 0.00 | 0.00 | 44 | 1011.7 |
| 20260831020246 | 32 | 131 | 0.0 | 1.6 | 0.00 | 0.00 | 0.00 | 43 | 1011.7 |
| 20260831015719 | 32 | 131 | 0.0 | 1.6 | 0.00 | 0.00 | 0.00 | 43 | 1011.6 |
| 20260831015434 | 32 | 131 | 0.0 | 3.2 | 0.00 | 0.00 | 0.00 | 42 | 1011.6 |
| 20260831014933 | 32 | 131 | 0.0 | 1.6 | 0.00 | 0.00 | 0.00 | 41 | 1011.5 |
| 20260831014409 | 33 | 120 | 0.0 | 3.2 | 0.00 | 0.00 | 0.00 | 39 | 1011.4 |
| 20260831013642 | 33 | 131 | 0.0 | 3.2 | 0.00 | 0.00 | 0.00 | 39 | 1011.4 |
| 20260831013127 | 33 | 132 | 1.6 | 6.4 | 0.00 | 0.00 | 0.00 | 38 | 1011.3 |
| 20260831012626 | 33 | 107 | 1.6 | 6.4 | 0.00 | 0.00 | 0.00 | 37 | 1011.4 |
| 20260831012128 | 33 | 123 | 1.6 | 6.4 | 0.00 | 0.00 | 0.00 | 36 | 1011.3 |
| 20260831011559 | 33 | 149 | 1.6 | 6.4 | 0.00 | 0.00 | 0.00 | 36 | 1011.3 |
| 20260831011056 | 33 | 104 | 1.6 | 6.4 | 0.00 | 0.00 | 0.00 | 36 | 1011.2 |
| 20260831010553 | 33 | 134 | 0.0 | 4.8 | 0.00 | 0.00 | 0.00 | 37 | 1011.3 |
| 20260831010051 | 33 | 131 | 0.0 | 4.8 | 0.00 | 0.00 | 0.00 | 37 | 1011.2 |
| 20260831005525 | 34 | 160 | 0.0 | 4.8 | 0.00 | 0.00 | 0.00 | 36 | 1011.1 |
| 20260831004959 | 34 | 118 | 0.0 | 3.2 | 0.00 | 0.00 | 0.00 | 35 | 1011.1 |
| 20260831004434 | 35 | 155 | 0.0 | 3.2 | 0.00 | 0.00 | 0.00 | 34 | 1011.1 |
| 20260831003905 | 35 | 150 | 1.6 | 9.7 | 0.00 | 0.00 | 0.00 | 33 | 1011.1 |
| 20260831003404 | 35 | 160 | 1.6 | 9.7 | 0.00 | 0.00 | 0.00 | 32 | 1011.1 |
| 20260831002859 | 35 | 134 | 1.6 | 6.4 | 0.00 | 0.00 | 0.00 | 31 | 1011.1 |
| 20260831002359 | 36 | 120 | 1.6 | 6.4 | 0.00 | 0.00 | 0.00 | 30 | 1011.1 |
| 20260831001901 | 36 | 120 | 3.2 | 11.3 | 0.00 | 0.00 | 0.00 | 30 | 1011.0 |
| 20260831001257 | 36 | 120 | 3.2 | 11.3 | 0.00 | 0.00 | 0.00 | 29 | 1011.1 |
| 20260831000754 | 36 | 124 | 3.2 | 11.3 | 0.00 | 0.00 | 0.00 | 29 | 1011.1 |
| 20260831000454 | 36 | 114 | 3.2 | 12.9 | 0.00 | 0.00 | 0.00 | 30 | 1011.2 |
| 20260830235929 | 36 | 121 | 4.8 | 12.9 | 0.00 | 0.00 | 0.00 | 30 | 1011.2 |
| 20260830235359 | 36 | 141 | 4.8 | 12.9 | 0.00 | 0.00 | 0.00 | 29 | 1011.3 |
| 20260830234633 | 36 | 147 | 4.8 | 12.9 | 0.00 | 0.00 | 0.00 | 29 | 1011.2 |
| 20260830234358 | 36 | 125 | 3.2 | 9.7 | 0.00 | 0.00 | 0.00 | 29 | 1011.2 |
| 20260830233603 | 36 | 193 | 1.6 | 8.0 | 0.00 | 0.00 | 0.00 | 29 | 1011.2 |
| 20260830233101 | 36 | 158 | 3.2 | 11.3 | 0.00 | 0.00 | 0.00 | 30 | 1011.3 |
| 20260830232533 | 36 | 142 | 4.8 | 11.3 | 0.00 | 0.00 | 0.00 | 30 | 1011.4 |
| 20260830232259 | 36 | 148 | 3.2 | 11.3 | 0.00 | 0.00 | 0.00 | 30 | 1011.3 |
| 20260830231504 | 36 | 128 | 3.2 | 14.5 | 0.00 | 0.00 | 0.00 | 31 | 1011.3 |
| 20260830231005 | 36 | 148 | 4.8 | 14.5 | 0.00 | 0.00 | 0.00 | 30 | 1011.4 |
| 20260830230433 | 36 | 267 | 6.4 | 17.7 | 0.00 | 0.00 | 0.00 | 29 | 1011.4 |
| 20260830230002 | 36 | 127 | 6.4 | 17.7 | 0.00 | 0.00 | 0.00 | 29 | 1011.4 |
| 20260830225233 | 36 | 171 | 4.8 | 12.9 | 0.00 | 0.00 | 0.00 | 30 | 1011.5 |
| 20260830224729 | 36 | 168 | 4.8 | 11.3 | 0.00 | 0.00 | 0.00 | 30 | 1011.5 |
| 20260830224204 | 36 | 124 | 4.8 | 11.3 | 0.00 | 0.00 | 0.00 | 29 | 1011.6 |
| 20260830223920 | 36 | 136 | 4.8 | 16.1 | 0.00 | 0.00 | 0.00 | 29 | 1011.5 |
| 20260830223158 | 37 | 150 | 4.8 | 16.1 | 0.00 | 0.00 | 0.00 | 28 | 1011.6 |
| 20260830222637 | 36 | 94 | 4.8 | 14.5 | 0.00 | 0.00 | 0.00 | 29 | 1011.5 |
| 20260830222128 | 36 | 120 | 3.2 | 14.5 | 0.00 | 0.00 | 0.00 | 31 | 1011.5 |
| 20260830221828 | 36 | 139 | 4.8 | 14.5 | 0.00 | 0.00 | 0.00 | 30 | 1011.6 |
| 20260830221057 | 36 | 231 | 4.8 | 14.5 | 0.00 | 0.00 | 0.00 | 29 | 1011.6 |
| 20260830220531 | 36 | 131 | 3.2 | 11.3 | 0.00 | 0.00 | 0.00 | 29 | 1011.6 |
| 20260830220006 | 36 | 140 | 4.8 | 12.9 | 0.00 | 0.00 | 0.00 | 25 | 1011.6 |
| 20260830215440 | 37 | 182 | 6.4 | 12.9 | 0.00 | 0.00 | 0.00 | 26 | 1011.5 |
| 20260830214911 | 37 | 163 | 4.8 | 12.9 | 0.00 | 0.00 | 0.00 | 26 | 1011.5 |
| 20260830214634 | 36 | 119 | 4.8 | 11.3 | 0.00 | 0.00 | 0.00 | 27 | 1011.6 |
| 20260830214107 | 37 | 119 | 6.4 | 11.3 | 0.00 | 0.00 | 0.00 | 26 | 1011.7 |
| 20260830213311 | 37 | 128 | 6.4 | 11.3 | 0.00 | 0.00 | 0.00 | 26 | 1011.7 |
| 20260830213254 | 37 | 110 | 6.4 | 17.7 | 0.00 | 0.00 | 0.00 | 26 | 1011.9 |
| 20260830212508 | 38 | 148 | 6.4 | 17.7 | 0.00 | 0.00 | 0.00 | 26 | 1012.0 |
| 20260830211741 | 38 | 136 | 6.4 | 19.3 | 0.00 | 0.00 | 0.00 | 26 | 1012.1 |
| 20260830211216 | 38 | 131 | 6.4 | 19.3 | 0.00 | 0.00 | 0.00 | 27 | 1012.0 |
| 20260830210650 | 37 | 221 | 6.4 | 16.1 | 0.00 | 0.00 | 0.00 | 26 | 1012.1 |
| 20260830210124 | 38 | 141 | 6.4 | 17.7 | 0.00 | 0.00 | 0.00 | 26 | 1012.2 |
| 20260830205557 | 37 | 90 | 6.4 | 17.7 | 0.00 | 0.00 | 0.00 | 27 | 1012.3 |
| 20260830205056 | 37 | 152 | 6.4 | 17.7 | 0.00 | 0.00 | 0.00 | 27 | 1012.3 |
| 20260830204526 | 37 | 271 | 8.0 | 20.9 | 0.00 | 0.00 | 0.00 | 27 | 1012.3 |
| 20260830204025 | 37 | 131 | 8.0 | 20.9 | 0.00 | 0.00 | 0.00 | 28 | 1012.4 |
| 20260830203518 | 37 | 175 | 8.0 | 16.1 | 0.00 | 0.00 | 0.00 | 27 | 1012.5 |
| 20260830203015 | 38 | 136 | 8.0 | 17.7 | 0.00 | 0.00 | 0.00 | 27 | 1012.6 |
| 20260830202512 | 38 | 227 | 8.0 | 14.5 | 0.00 | 0.00 | 0.00 | 27 | 1012.7 |
| 20260830201948 | 38 | 148 | 6.4 | 20.9 | 0.00 | 0.00 | 0.00 | 27 | 1012.7 |
| 20260830201423 | 37 | 137 | 8.0 | 20.9 | 0.00 | 0.00 | 0.00 | 28 | 1012.7 |
| 20260830200924 | 37 | 127 | 8.0 | 24.1 | 0.00 | 0.00 | 0.00 | 29 | 1012.7 |
| 20260830200401 | 37 | 77 | 6.4 | 24.1 | 0.00 | 0.00 | 0.00 | 30 | 1012.9 |
| 20260830195857 | 37 | 117 | 8.0 | 25.7 | 0.00 | 0.00 | 0.00 | 28 | 1013.0 |
| 20260830195549 | 37 | 127 | 8.0 | 25.7 | 0.00 | 0.00 | 0.00 | 28 | 1013.1 |
| 20260830195320 | 37 | 132 | 8.0 | 17.7 | 0.00 | 0.00 | 0.00 | 31 | 1013.2 |
| 20260830194306 | 37 | 144 | 9.7 | 22.5 | 0.00 | 0.00 | 0.00 | 30 | 1013.3 |
| 20260830193800 | 37 | 139 | 8.0 | 22.5 | 0.00 | 0.00 | 0.00 | 30 | 1013.3 |
| 20260830193302 | 38 | 128 | 8.0 | 20.9 | 0.00 | 0.00 | 0.00 | 30 | 1013.3 |
| 20260830192741 | 37 | 169 | 8.0 | 22.5 | 0.00 | 0.00 | 0.00 | 30 | 1013.3 |
| 20260830192242 | 37 | 121 | 6.4 | 22.5 | 0.00 | 0.00 | 0.00 | 29 | 1013.5 |
| 20260830191938 | 37 | 136 | 6.4 | 22.5 | 0.00 | 0.00 | 0.00 | 29 | 1013.6 |
| 20260830191219 | 37 | 137 | 9.7 | 17.7 | 0.00 | 0.00 | 0.00 | 32 | 1013.6 |
| 20260830190706 | 37 | 147 | 11.3 | 19.3 | 0.00 | 0.00 | 0.00 | 30 | 1013.7 |
| 20260830190208 | 37 | 231 | 9.7 | 19.3 | 0.00 | 0.00 | 0.00 | 30 | 1013.7 |
| 20260830185646 | 37 | 220 | 6.4 | 17.7 | 0.00 | 0.00 | 0.00 | 31 | 1013.7 |
| 20260830185128 | 37 | 165 | 8.0 | 19.3 | 0.00 | 0.00 | 0.00 | 30 | 1013.8 |
| 20260830184630 | 37 | 191 | 9.7 | 19.3 | 0.00 | 0.00 | 0.00 | 31 | 1013.9 |
| 20260830184112 | 37 | 153 | 8.0 | 22.5 | 0.00 | 0.00 | 0.00 | 32 | 1013.9 |
| 20260830183612 | 37 | 138 | 9.7 | 22.5 | 0.00 | 0.00 | 0.00 | 32 | 1013.9 |
| 20260830183115 | 36 | 240 | 11.3 | 19.3 | 0.00 | 0.00 | 0.00 | 32 | 1014.0 |
| 20260830182607 | 36 | 167 | 9.7 | 19.3 | 0.00 | 0.00 | 0.00 | 32 | 1014.1 |
| 20260830182334 | 36 | 218 | 8.0 | 19.3 | 0.00 | 0.00 | 0.00 | 32 | 1014.1 |
| 20260830181547 | 36 | 136 | 9.7 | 19.3 | 0.00 | 0.00 | 0.00 | 33 | 1014.3 |
| 20260830181031 | 36 | 140 | 9.7 | 19.3 | 0.00 | 0.00 | 0.00 | 32 | 1014.3 |
| 20260830180734 | 36 | 209 | 8.0 | 22.5 | 0.00 | 0.00 | 0.00 | 33 | 1014.4 |
| 20260830175947 | 36 | 200 | 9.7 | 22.5 | 0.00 | 0.00 | 0.00 | 34 | 1014.6 |
| 20260830175447 | 36 | 159 | 9.7 | 17.7 | 0.00 | 0.00 | 0.00 | 35 | 1014.6 |
| 20260830174946 | 36 | 214 | 8.0 | 17.7 | 0.00 | 0.00 | 0.00 | 33 | 1014.6 |
| 20260830174448 | 36 | 215 | 6.4 | 20.9 | 0.00 | 0.00 | 0.00 | 35 | 1014.7 |
| 20260830173936 | 36 | 220 | 8.0 | 20.9 | 0.00 | 0.00 | 0.00 | 37 | 1014.8 |
| 20260830173435 | 36 | 114 | 8.0 | 17.7 | 0.00 | 0.00 | 0.00 | 35 | 1014.8 |
| 20260830172931 | 36 | 172 | 8.0 | 16.1 | 0.00 | 0.00 | 0.00 | 37 | 1015.0 |
| 20260830172414 | 35 | 235 | 9.7 | 14.5 | 0.00 | 0.00 | 0.00 | 37 | 1015.0 |
| 20260830172134 | 35 | 207 | 8.0 | 14.5 | 0.00 | 0.00 | 0.00 | 37 | 1015.1 |
| 20260830171413 | 35 | 118 | 6.4 | 16.1 | 0.00 | 0.00 | 0.00 | 39 | 1015.2 |
| 20260830170912 | 35 | 127 | 8.0 | 16.1 | 0.00 | 0.00 | 0.00 | 39 | 1015.3 |
| 20260830170415 | 35 | 235 | 8.0 | 19.3 | 0.00 | 0.00 | 0.00 | 39 | 1015.3 |
| 20260830170112 | 35 | 284 | 6.4 | 17.7 | 0.00 | 0.00 | 0.00 | 40 | 1015.4 |
| 20260830165320 | 35 | 256 | 8.0 | 16.1 | 0.00 | 0.00 | 0.00 | 41 | 1015.5 |
| 20260830164819 | 35 | 169 | 6.4 | 24.1 | 0.00 | 0.00 | 0.00 | 40 | 1015.5 |
| 20260830164314 | 35 | 84 | 6.4 | 16.1 | 0.00 | 0.00 | 0.00 | 41 | 1015.5 |
| 20260830164006 | 35 | 250 | 6.4 | 16.1 | 0.00 | 0.00 | 0.00 | 42 | 1015.6 |
| 20260830163242 | 35 | 262 | 6.4 | 14.5 | 0.00 | 0.00 | 0.00 | 43 | 1015.6 |
| 20260830162940 | 34 | 202 | 6.4 | 14.5 | 0.00 | 0.00 | 0.00 | 43 | 1015.6 |
| 20260830162154 | 34 | 168 | 4.8 | 14.5 | 0.00 | 0.00 | 0.00 | 44 | 1015.7 |
| 20260830161651 | 34 | 226 | 4.8 | 14.5 | 0.00 | 0.00 | 0.00 | 43 | 1015.7 |
| 20260830161147 | 34 | 167 | 4.8 | 14.5 | 0.00 | 0.00 | 0.00 | 45 | 1015.7 |
| 20260830160621 | 34 | 232 | 4.8 | 14.5 | 0.00 | 0.00 | 0.00 | 44 | 1015.6 |
| 20260830160051 | 33 | 266 | 4.8 | 14.5 | 0.00 | 0.00 | 0.00 | 44 | 1015.6 |
| 20260830155551 | 33 | 210 | 4.8 | 14.5 | 0.00 | 0.00 | 0.00 | 46 | 1015.6 |
| 20260830155027 | 33 | 252 | 4.8 | 14.5 | 0.00 | 0.00 | 0.00 | 46 | 1015.6 |
| 20260830154459 | 33 | 225 | 8.0 | 16.1 | 0.00 | 0.00 | 0.00 | 47 | 1015.5 |
| 20260830154431 | 32 | 210 | 6.4 | 16.1 | 0.00 | 0.00 | 0.00 | 48 | 1015.6 |
| 20260830153455 | 32 | 186 | 4.8 | 11.3 | 0.00 | 0.00 | 0.00 | 48 | 1015.6 |
| 20260830152950 | 32 | 175 | 3.2 | 12.9 | 0.00 | 0.00 | 0.00 | 49 | 1015.7 |
| 20260830152448 | 32 | 193 | 3.2 | 12.9 | 0.00 | 0.00 | 0.00 | 50 | 1015.7 |
| 20260830151919 | 32 | 252 | 3.2 | 11.3 | 0.00 | 0.00 | 0.00 | 52 | 1015.8 |
| 20260830151415 | 31 | 216 | 4.8 | 11.3 | 0.00 | 0.00 | 0.00 | 53 | 1015.7 |
| 20260830150846 | 31 | 224 | 4.8 | 11.3 | 0.00 | 0.00 | 0.00 | 54 | 1015.7 |
| 20260830150347 | 31 | 179 | 4.8 | 11.3 | 0.00 | 0.00 | 0.00 | 54 | 1015.7 |
| 20260830145830 | 31 | 212 | 4.8 | 11.3 | 0.00 | 0.00 | 0.00 | 55 | 1015.7 |
| 20260830145330 | 31 | 250 | 3.2 | 9.7 | 0.00 | 0.00 | 0.00 | 56 | 1015.7 |
| 20260830144832 | 31 | 183 | 1.6 | 11.3 | 0.00 | 0.00 | 0.00 | 57 | 1015.7 |
| 20260830144303 | 30 | 149 | 3.2 | 11.3 | 0.00 | 0.00 | 0.00 | 58 | 1015.6 |
| 20260830143759 | 30 | 247 | 3.2 | 11.3 | 0.00 | 0.00 | 0.00 | 60 | 1015.6 |
| 20260830143234 | 30 | 224 | 3.2 | 11.3 | 0.00 | 0.00 | 0.00 | 60 | 1015.6 |
| 20260830142949 | 29 | 203 | 3.2 | 9.7 | 0.00 | 0.00 | 0.00 | 60 | 1015.7 |
| 20260830142228 | 29 | 240 | 3.2 | 9.7 | 0.00 | 0.00 | 0.00 | 61 | 1015.8 |
| 20260830141926 | 29 | 161 | 3.2 | 8.0 | 0.00 | 0.00 | 0.00 | 62 | 1015.8 |
| 20260830141134 | 29 | 240 | 3.2 | 8.0 | 0.00 | 0.00 | 0.00 | 62 | 1015.8 |
| 20260830140632 | 28 | 134 | 1.6 | 6.4 | 0.00 | 0.00 | 0.00 | 63 | 1015.8 |
| 20260830140113 | 28 | 235 | 1.6 | 9.7 | 0.00 | 0.00 | 0.00 | 64 | 1015.8 |
| 20260830135535 | 28 | 233 | 3.2 | 9.7 | 0.00 | 0.00 | 0.00 | 65 | 1015.7 |
| 20260830135031 | 27 | 243 | 3.2 | 8.0 | 0.00 | 0.00 | 0.00 | 66 | 1015.7 |
| 20260830134506 | 27 | 149 | 3.2 | 8.0 | 0.00 | 0.00 | 0.00 | 66 | 1015.7 |
| 20260830133939 | 27 | 212 | 3.2 | 9.7 | 0.00 | 0.00 | 0.00 | 67 | 1015.7 |
| 20260830133436 | 27 | 257 | 4.8 | 9.7 | 0.00 | 0.00 | 0.00 | 67 | 1015.7 |
| 20260830132935 | 27 | 223 | 3.2 | 11.3 | 0.00 | 0.00 | 0.00 | 68 | 1015.6 |
| 20260830132406 | 27 | 107 | 1.6 | 9.7 | 0.00 | 0.00 | 0.00 | 68 | 1015.5 |
| 20260830131904 | 26 | 150 | 3.2 | 9.7 | 0.00 | 0.00 | 0.00 | 68 | 1015.5 |
| 20260830131348 | 26 | 231 | 4.8 | 11.3 | 0.00 | 0.00 | 0.00 | 68 | 1015.4 |
| 20260830130846 | 26 | 207 | 3.2 | 11.3 | 0.00 | 0.00 | 0.00 | 68 | 1015.4 |
| 20260830130348 | 26 | 238 | 3.2 | 11.3 | 0.00 | 0.00 | 0.00 | 69 | 1015.4 |
| 20260830125823 | 26 | 178 | 3.2 | 11.3 | 0.00 | 0.00 | 0.00 | 68 | 1015.3 |
| 20260830125256 | 26 | 165 | 3.2 | 11.3 | 0.00 | 0.00 | 0.00 | 69 | 1015.2 |
| 20260830124729 | 26 | 153 | 1.6 | 8.0 | 0.00 | 0.00 | 0.00 | 68 | 1015.1 |
| 20260830124432 | 26 | 174 | 1.6 | 6.4 | 0.00 | 0.00 | 0.00 | 68 | 1015.1 |
| 20260830123638 | 26 | 240 | 1.6 | 6.4 | 0.00 | 0.00 | 0.00 | 68 | 1015.0 |
| 20260830123110 | 26 | 125 | 1.6 | 6.4 | 0.00 | 0.00 | 0.00 | 68 | 1014.9 |
| 20260830122834 | 26 | 226 | 1.6 | 8.0 | 0.00 | 0.00 | 0.00 | 68 | 1014.9 |
| 20260830122321 | 26 | 157 | 1.6 | 8.0 | 0.00 | 0.00 | 0.00 | 67 | 1014.8 |
| 20260830121558 | 26 | 203 | 1.6 | 6.4 | 0.00 | 0.00 | 0.00 | 67 | 1014.8 |
| 20260830121030 | 26 | 248 | 1.6 | 6.4 | 0.00 | 0.00 | 0.00 | 66 | 1014.7 |
| 20260830120528 | 26 | 142 | 1.6 | 9.7 | 0.00 | 0.00 | 0.00 | 66 | 1014.6 |
| 20260830120000 | 26 | 243 | 1.6 | 9.7 | 0.00 | 0.00 | 0.00 | 66 | 1014.6 |
| 20260830115459 | 26 | 215 | 1.6 | 8.0 | 0.00 | 0.00 | 0.00 | 66 | 1014.6 |
| 20260830115158 | 26 | 258 | 1.6 | 6.4 | 0.00 | 0.00 | 0.00 | 65 | 1014.4 |
| 20260830114404 | 26 | 121 | 0.0 | 6.4 | 0.00 | 0.00 | 0.00 | 64 | 1014.3 |
| 20260830114101 | 26 | 132 | 0.0 | 6.4 | 0.00 | 0.00 | 0.00 | 64 | 1014.3 |
| 20260830113314 | 26 | 116 | 1.6 | 8.0 | 0.00 | 0.00 | 0.00 | 63 | 1014.3 |
| 20260830112810 | 26 | 153 | 1.6 | 8.0 | 0.00 | 0.00 | 0.00 | 63 | 1014.2 |
| 20260830112308 | 26 | 146 | 1.6 | 6.4 | 0.00 | 0.00 | 0.00 | 62 | 1014.1 |
| 20260830112001 | 26 | 255 | 1.6 | 6.4 | 0.00 | 0.00 | 0.00 | 62 | 1014.1 |
| 20260830111240 | 26 | 158 | 1.6 | 6.4 | 0.00 | 0.00 | 0.00 | 61 | 1014.0 |
| 20260830110713 | 27 | 219 | 1.6 | 6.4 | 0.00 | 0.00 | 0.00 | 61 | 1013.9 |
| 20260830110144 | 27 | 148 | 1.6 | 9.7 | 0.00 | 0.00 | 0.00 | 61 | 1013.9 |
| 20260830105642 | 27 | 238 | 1.6 | 9.7 | 0.00 | 0.00 | 0.00 | 60 | 1013.9 |
| 20260830105114 | 27 | 129 | 1.6 | 8.0 | 0.00 | 0.00 | 0.00 | 60 | 1013.8 |
| 20260830104613 | 27 | 257 | 3.2 | 9.7 | 0.00 | 0.00 | 0.00 | 59 | 1013.8 |
| 20260830104050 | 27 | 243 | 3.2 | 9.7 | 0.00 | 0.00 | 0.00 | 59 | 1013.8 |
| 20260830103536 | 27 | 236 | 3.2 | 8.0 | 0.00 | 0.00 | 0.00 | 59 | 1013.8 |
| 20260830103008 | 27 | 231 | 1.6 | 8.0 | 0.00 | 0.00 | 0.00 | 60 | 1013.8 |
| 20260830102506 | 27 | 138 | 1.6 | 8.0 | 0.00 | 0.00 | 0.00 | 60 | 1013.8 |
| 20260830101941 | 27 | 143 | 1.6 | 6.4 | 0.00 | 0.00 | 0.00 | 60 | 1013.8 |
| 20260830101412 | 27 | 146 | 0.0 | 4.8 | 0.00 | 0.00 | 0.00 | 60 | 1013.7 |
| 20260830100911 | 26 | 151 | 0.0 | 3.2 | 0.00 | 0.00 | 0.00 | 60 | 1013.7 |
| 20260830100346 | 26 | 140 | 0.0 | 0.0 | 0.00 | 0.00 | 0.00 | 60 | 1013.6 |
| 20260830095843 | 26 | 140 | 0.0 | 0.0 | 0.00 | 0.00 | 0.00 | 59 | 1013.6 |
| 20260830095538 | 27 | 140 | 0.0 | 0.0 | 0.00 | 0.00 | 0.00 | 58 | 1013.6 |
| 20260830094742 | 27 | 140 | 0.0 | 0.0 | 0.00 | 0.00 | 0.00 | 58 | 1013.7 |
| 20260830094241 | 27 | 140 | 0.0 | 3.2 | 0.00 | 0.00 | 0.00 | 57 | 1013.7 |
| 20260830093712 | 27 | 140 | 0.0 | 4.8 | 0.00 | 0.00 | 0.00 | 57 | 1013.7 |
| 20260830093208 | 27 | 122 | 0.0 | 4.8 | 0.00 | 0.00 | 0.00 | 57 | 1013.7 |
| 20260830092707 | 27 | 119 | 0.0 | 1.6 | 0.00 | 0.00 | 0.00 | 57 | 1013.7 |
| 20260830092202 | 27 | 139 | 0.0 | 0.0 | 0.00 | 0.00 | 0.00 | 56 | 1013.7 |
| 20260830091636 | 27 | 139 | 0.0 | 1.6 | 0.00 | 0.00 | 0.00 | 56 | 1013.7 |
| 20260830091111 | 27 | 139 | 0.0 | 1.6 | 0.00 | 0.00 | 0.00 | 55 | 1013.7 |
| 20260830090547 | 27 | 139 | 0.0 | 1.6 | 0.00 | 0.00 | 0.00 | 54 | 1013.8 |
| 20260830090017 | 27 | 139 | 0.0 | 3.2 | 0.00 | 0.00 | 0.00 | 54 | 1013.8 |
| 20260830085517 | 27 | 120 | 1.6 | 4.8 | 0.00 | 0.00 | 0.00 | 53 | 1013.8 |
| 20260830084948 | 28 | 144 | 1.6 | 4.8 | 0.00 | 0.00 | 0.00 | 52 | 1013.7 |
| 20260830084446 | 28 | 120 | 0.0 | 4.8 | 0.00 | 0.00 | 0.00 | 52 | 1013.7 |
| 20260830083920 | 28 | 132 | 1.6 | 4.8 | 0.00 | 0.00 | 0.00 | 51 | 1013.8 |
| 20260830083418 | 28 | 124 | 1.6 | 6.4 | 0.00 | 0.00 | 0.00 | 50 | 1013.8 |
| 20260830082856 | 28 | 141 | 1.6 | 8.0 | 0.00 | 0.00 | 0.00 | 50 | 1013.8 |
| 20260830082332 | 28 | 124 | 1.6 | 8.0 | 0.00 | 0.00 | 0.00 | 49 | 1013.8 |
| 20260830081832 | 28 | 118 | 1.6 | 8.0 | 0.00 | 0.00 | 0.00 | 48 | 1013.8 |
| 20260830081532 | 28 | 130 | 3.2 | 8.0 | 0.00 | 0.00 | 0.00 | 48 | 1013.6 |
| 20260830080810 | 28 | 114 | 1.6 | 8.0 | 0.00 | 0.00 | 0.00 | 48 | 1013.5 |
| 20260830080243 | 28 | 120 | 1.6 | 8.0 | 0.00 | 0.00 | 0.00 | 48 | 1013.5 |
| 20260830080008 | 28 | 146 | 1.6 | 6.4 | 0.00 | 0.00 | 0.00 | 48 | 1013.6 |
| 20260830075733 | 28 | 117 | 1.6 | 6.4 | 0.00 | 0.00 | 0.00 | 48 | 1013.7 |
| 20260830074731 | 28 | 127 | 1.6 | 4.8 | 0.00 | 0.00 | 0.00 | 48 | 1013.7 |
| 20260830074230 | 28 | 120 | 1.6 | 4.8 | 0.00 | 0.00 | 0.00 | 48 | 1013.8 |
| 20260830073711 | 29 | 107 | 1.6 | 6.4 | 0.00 | 0.00 | 0.00 | 47 | 1013.7 |
| 20260830073149 | 29 | 131 | 1.6 | 8.0 | 0.00 | 0.00 | 0.00 | 47 | 1013.7 |
| 20260830072651 | 29 | 169 | 1.6 | 8.0 | 0.00 | 0.00 | 0.00 | 47 | 1013.7 |
| 20260830072405 | 29 | 136 | 1.6 | 9.7 | 0.00 | 0.00 | 0.00 | 46 | 1013.8 |
| 20260830071647 | 29 | 113 | 1.6 | 9.7 | 0.00 | 0.00 | 0.00 | 46 | 1013.8 |
| 20260830071116 | 29 | 127 | 1.6 | 4.8 | 0.00 | 0.00 | 0.00 | 46 | 1013.8 |
| 20260830070614 | 29 | 118 | 1.6 | 9.7 | 0.00 | 0.00 | 0.00 | 45 | 1013.9 |
| 20260830070115 | 30 | 225 | 1.6 | 9.7 | 0.00 | 0.00 | 0.00 | 44 | 1013.8 |
| 20260830065554 | 30 | 141 | 3.2 | 9.7 | 0.00 | 0.00 | 0.00 | 44 | 1013.8 |
| 20260830065050 | 30 | 189 | 4.8 | 17.7 | 0.00 | 0.00 | 0.00 | 43 | 1013.9 |
| 20260830064547 | 30 | 138 | 4.8 | 17.7 | 0.00 | 0.00 | 0.00 | 43 | 1013.9 |
| 20260830064248 | 30 | 114 | 6.4 | 12.9 | 0.00 | 0.00 | 0.00 | 43 | 1013.9 |
| 20260830063457 | 30 | 106 | 6.4 | 12.9 | 0.00 | 0.00 | 0.00 | 43 | 1013.9 |
| 20260830063226 | 30 | 158 | 4.8 | 14.5 | 0.00 | 0.00 | 0.00 | 43 | 1013.9 |
| 20260830062441 | 30 | 151 | 4.8 | 14.5 | 0.00 | 0.00 | 0.00 | 42 | 1013.9 |
| 20260830061918 | 30 | 101 | 4.8 | 11.3 | 0.00 | 0.00 | 0.00 | 43 | 1013.9 |
| 20260830061902 | 30 | 174 | 4.8 | 11.3 | 0.00 | 0.00 | 0.00 | 43 | 1013.9 |
| 20260830060917 | 30 | 141 | 4.8 | 11.3 | 0.00 | 0.00 | 0.00 | 43 | 1013.8 |
| 20260830060353 | 30 | 106 | 4.8 | 11.3 | 0.00 | 0.00 | 0.00 | 43 | 1013.8 |
| 20260830055829 | 30 | 136 | 4.8 | 9.7 | 0.00 | 0.00 | 0.00 | 43 | 1013.9 |
| 20260830055327 | 30 | 161 | 3.2 | 9.7 | 0.00 | 0.00 | 0.00 | 44 | 1013.9 |
| 20260830054809 | 30 | 124 | 3.2 | 11.3 | 0.00 | 0.00 | 0.00 | 44 | 1014.0 |
| 20260830054248 | 30 | 162 | 1.6 | 8.0 | 0.00 | 0.00 | 0.00 | 44 | 1013.9 |
| 20260830053722 | 29 | 128 | 0.0 | 6.4 | 0.00 | 0.00 | 0.00 | 45 | 1013.9 |
| 20260830053217 | 30 | 115 | 1.6 | 6.4 | 0.00 | 0.00 | 0.00 | 45 | 1013.9 |
| 20260830052717 | 29 | 135 | 1.6 | 8.0 | 0.00 | 0.00 | 0.00 | 45 | 1013.9 |
| 20260830052406 | 29 | 122 | 1.6 | 8.0 | 0.00 | 0.00 | 0.00 | 47 | 1013.9 |
| 20260830051647 | 29 | 127 | 0.0 | 3.2 | 0.00 | 0.00 | 0.00 | 50 | 1013.9 |
| 20260830051120 | 29 | 120 | 0.0 | 3.2 | 0.00 | 0.00 | 0.00 | 49 | 1013.8 |
| 20260830050844 | 30 | 121 | 0.0 | 0.0 | 0.00 | 0.00 | 0.00 | 45 | 1013.7 |
| 20260830050119 | 30 | 121 | 0.0 | 1.6 | 0.00 | 0.00 | 0.00 | 44 | 1013.6 |
| 20260830045549 | 30 | 121 | 0.0 | 1.6 | 0.00 | 0.00 | 0.00 | 43 | 1013.6 |
| 20260830045045 | 30 | 134 | 0.0 | 1.6 | 0.00 | 0.00 | 0.00 | 42 | 1013.6 |
| 20260830044517 | 30 | 134 | 0.0 | 1.6 | 0.00 | 0.00 | 0.00 | 42 | 1013.5 |
| 20260830044222 | 30 | 133 | 0.0 | 1.6 | 0.00 | 0.00 | 0.00 | 41 | 1013.5 |
| 20260830043719 | 31 | 133 | 0.0 | 3.2 | 0.00 | 0.00 | 0.00 | 41 | 1013.5 |
| 20260830042957 | 31 | 133 | 0.0 | 3.2 | 0.00 | 0.00 | 0.00 | 40 | 1013.5 |
| 20260830042453 | 31 | 124 | 0.0 | 1.6 | 0.00 | 0.00 | 0.00 | 41 | 1013.5 |
| 20260830041952 | 31 | 157 | 0.0 | 3.2 | 0.00 | 0.00 | 0.00 | 40 | 1013.5 |
| 20260830041447 | 31 | 227 | 0.0 | 3.2 | 0.00 | 0.00 | 0.00 | 39 | 1013.4 |
| 20260830040946 | 31 | 149 | 0.0 | 4.8 | 0.00 | 0.00 | 0.00 | 39 | 1013.4 |
| 20260830040422 | 31 | 143 | 0.0 | 4.8 | 0.00 | 0.00 | 0.00 | 39 | 1013.4 |
| 20260830035850 | 31 | 142 | 0.0 | 4.8 | 0.00 | 0.00 | 0.00 | 39 | 1013.4 |
| 20260830035350 | 31 | 160 | 0.0 | 1.6 | 0.00 | 0.00 | 0.00 | 39 | 1013.3 |
| 20260830034845 | 31 | 175 | 0.0 | 1.6 | 0.00 | 0.00 | 0.00 | 39 | 1013.3 |
| 20260830034345 | 31 | 147 | 0.0 | 3.2 | 0.00 | 0.00 | 0.00 | 39 | 1013.4 |
| 20260830033816 | 32 | 147 | 0.0 | 3.2 | 0.00 | 0.00 | 0.00 | 38 | 1013.3 |
| 20260830033314 | 32 | 106 | 0.0 | 3.2 | 0.00 | 0.00 | 0.00 | 38 | 1013.3 |
| 20260830032745 | 32 | 159 | 0.0 | 3.2 | 0.00 | 0.00 | 0.00 | 38 | 1013.3 |